Retour au catalogue

OPS 4682 DEB

ActifPO
NORAD 20031·DEBRIS·🇺🇸 United States

Lancé Apr 3, 1965 depuis Vandenberg Space Force Base

Loading…

Prochains Passages (prochaines 24 heures)

TLE

FraisSource: Space-Track

Époque: Sep 14, 2026, 05:35 UTC

1 20031U 65027BB  26257.23283006  .00000047  00000-0  13506-3 0  9991
2 20031  90.2351   1.1702 0034155 177.5265 209.7857 12.97979793778766

Suivez OPS 4682 DEB en temps réel avec AllMySat

Download on the App Store